Ciel couvert
Couvert avec pluie légère
Partiellement nuageux avec quelques cirrus
Partiellement nuageux avec quelques cirrus
Partiellement nuageux avec quelques cirrus
Partiellement nuageux
Partiellement nuageux et quelques cirrus
(°C)
10°
10°
10°
10°
11°
11°
12°
12°
12°
12°
12°
12°
(°C)
N
N
NNO
NNO
N
N
N
(km/h)
4-8
10-15
11-16
11-24
12-25
12-30
11-31
(mm)
0
0.3
0
0
0
0
0
(%)
8
25
16
15
15
15
7

Élévation du soleil

/ 16.9°
sun-icon
UV 3
04:20
21:22
Gibbeuse décroissante (254°)
01:52
09:51

METAR pour 55.31°N 61.5°E (USCC)

Heure Conditions Température/
Point de rosée
Vent Visibilité Météo Nuages Pression Changement Brut
VFR 10°C / 8°C 40º 4kt 9700m - Clouds and Visibility OK 1013 Temporary: Visibility 0300. Fog . VV002 RMK QFE740 USCC 290130Z 04002MPS CAVOK 10/08 Q1013 R27/000060 TEMPO 0300 FG VV002 RMK QFE740
VFR 9°C / 8°C 50º 2kt 9700m - Clouds and Visibility OK 1013 Temporary: Visibility 0300. Fog . VV002 RMK QFE740 USCC 290100Z 05001MPS CAVOK 09/08 Q1013 R27/000060 TEMPO 0300 FG VV002 RMK QFE740
VFR 7°C / 6°C 50º 4kt 9700m - Clouds and Visibility OK 1013 Temporary: Visibility 0300. Fog . VV002 RMK QFE740 USCC 290030Z 05002MPS CAVOK 07/06 Q1013 R27/000060 TEMPO 0300 FG VV002 RMK QFE740
VFR 6°C / 5°C 30º 6kt 9700m - Clouds and Visibility OK 1013 Temporary: Visibility 0300. Fog . VV002 RMK QFE740 USCC 290000Z 03003MPS CAVOK 06/05 Q1013 R27/000060 TEMPO 0300 FG VV002 RMK QFE740
VFR 6°C / 5°C variable 0kt 9700m - Clouds and Visibility OK 1013 Temporary: Visibility 0300. Fog . VV002 RMK QFE739 USCC 282330Z 00000MPS CAVOK 06/05 Q1013 R27/000060 TEMPO 0300 FG VV002 RMK QFE739
VFR 6°C / 4°C 350º 2kt 9700m - Clouds and Visibility OK 1013 No Significant change USCC 282300Z 35001MPS CAVOK 06/04 Q1013 R27/000060 NOSIG RMK QFE740
VFR 9°C / 6°C variable 0kt 9700m - Clouds and Visibility OK 1013 No Significant change USCC 282230Z 00000MPS CAVOK 09/06 Q1013 R27/000060 NOSIG RMK QFE739
VFR 9°C / 7°C variable 0kt 9700m - Clouds and Visibility OK 1013 No Significant change USCC 282200Z 00000MPS CAVOK 09/07 Q1013 R27/000060 NOSIG RMK QFE740
VFR 8°C / 6°C variable 0kt 9700m - Clouds and Visibility OK 1013 No Significant change USCC 282130Z 00000MPS CAVOK 08/06 Q1013 R27/000060 NOSIG RMK QFE740
VFR 9°C / 7°C variable 0kt 9700m - Clouds and Visibility OK 1013 No Significant change USCC 282100Z 00000MPS CAVOK 09/07 Q1013 R27/000060 NOSIG RMK QFE739
VFR 9°C / 6°C variable 0kt 9700m - Clouds and Visibility OK 1013 No Significant change USCC 282030Z 00000MPS CAVOK 09/06 Q1013 R27/000060 NOSIG RMK QFE740
VFR 11°C / 7°C variable 0kt 9700m - Clouds and Visibility OK 1013 No Significant change USCC 282000Z 00000MPS CAVOK 11/07 Q1013 R27/000060 NOSIG RMK QFE739
VFR 11°C / 7°C variable 0kt 9700m - Clouds and Visibility OK 1013 No Significant change USCC 281930Z 00000MPS CAVOK 11/07 Q1013 R27/000060 NOSIG RMK QFE739
VFR 10°C / 6°C 320º 2kt 9700m - Clouds and Visibility OK 1013 No Significant change USCC 281900Z 32001MPS CAVOK 10/06 Q1013 R27/000060 NOSIG RMK QFE739
VFR 12°C / 6°C 10º 4kt 9700m - Clouds and Visibility OK 1013 No Significant change USCC 281830Z 01002MPS CAVOK 12/06 Q1013 R27/000060 NOSIG RMK QFE740
VFR 14°C / 7°C 40º 8kt 9700m - Clouds and Visibility OK 1013 No Significant change USCC 281800Z 04004MPS CAVOK 14/07 Q1013 R27/000060 NOSIG RMK QFE739
VFR 18°C / 2°C 320º 10kt 9700m - Clouds and Visibility OK 1012 No Significant change USCC 281730Z 32005MPS CAVOK 18/02 Q1012 R27/000060 NOSIG RMK QFE739
VFR 18°C / 2°C 270º 12kt 9700m - Clouds and Visibility OK 1012 No Significant change USCC 281700Z 27006MPS CAVOK 18/02 Q1012 R27/000060 NOSIG RMK QFE739
VFR 18°C / 2°C 270º 12kt 9700m - Clouds and Visibility OK 1012 No Significant change USCC 281630Z 27006MPS CAVOK 18/02 Q1012 R27/000060 NOSIG RMK QFE739
VFR 19°C / 1°C 280º 16kt 9700m - Clouds and Visibility OK 1012 No Significant change USCC 281600Z 28008MPS CAVOK 19/01 Q1012 R27/000060 NOSIG RMK QFE739
VFR 19°C / 2°C 280º 16kt Gust 25kt 9700m - Clouds and Visibility OK 1011 No Significant change USCC 281530Z 28008G13MPS CAVOK 19/02 Q1011 R27/000060 NOSIG RMK QFE739
VFR 20°C / 2°C 280º 19kt 9700m - Clouds and Visibility OK 1011 No Significant change USCC 281500Z 28010MPS CAVOK 20/02 Q1011 R27/000060 NOSIG RMK QFE739
VFR 21°C / 2°C 280º 21kt Gust 33kt 9700m - Clouds and Visibility OK 1011 No Significant change USCC 281430Z 28011G17MPS CAVOK 21/02 Q1011 R27/000060 NOSIG RMK QFE738
VFR 21°C / 2°C 280º 21kt 9700m - Clouds and Visibility OK 1011 No Significant change USCC 281400Z 28011MPS CAVOK 21/02 Q1011 R27/000060 NOSIG RMK QFE739

VFR

10°C / 8°C

[Plus]
Vent 40º 4kt
Visibilité 9700m
Météo -
Nuages Clouds and Visibility OK
Pression 1013
Changement Temporary: Visibility 0300. Fog . VV002 RMK QFE740
Brut USCC 290130Z 04002MPS CAVOK 10/08 Q1013 R27/000060 TEMPO 0300 FG VV002 RMK QFE740

VFR

9°C / 8°C

[Plus]
Vent 50º 2kt
Visibilité 9700m
Météo -
Nuages Clouds and Visibility OK
Pression 1013
Changement Temporary: Visibility 0300. Fog . VV002 RMK QFE740
Brut USCC 290100Z 05001MPS CAVOK 09/08 Q1013 R27/000060 TEMPO 0300 FG VV002 RMK QFE740

VFR

7°C / 6°C

[Plus]
Vent 50º 4kt
Visibilité 9700m
Météo -
Nuages Clouds and Visibility OK
Pression 1013
Changement Temporary: Visibility 0300. Fog . VV002 RMK QFE740
Brut USCC 290030Z 05002MPS CAVOK 07/06 Q1013 R27/000060 TEMPO 0300 FG VV002 RMK QFE740

VFR

6°C / 5°C

[Plus]
Vent 30º 6kt
Visibilité 9700m
Météo -
Nuages Clouds and Visibility OK
Pression 1013
Changement Temporary: Visibility 0300. Fog . VV002 RMK QFE740
Brut USCC 290000Z 03003MPS CAVOK 06/05 Q1013 R27/000060 TEMPO 0300 FG VV002 RMK QFE740

VFR

6°C / 5°C

[Plus]
Vent variable 0kt
Visibilité 9700m
Météo -
Nuages Clouds and Visibility OK
Pression 1013
Changement Temporary: Visibility 0300. Fog . VV002 RMK QFE739
Brut USCC 282330Z 00000MPS CAVOK 06/05 Q1013 R27/000060 TEMPO 0300 FG VV002 RMK QFE739

VFR

6°C / 4°C

[Plus]
Vent 350º 2kt
Visibilité 9700m
Météo -
Nuages Clouds and Visibility OK
Pression 1013
Changement No Significant change
Brut USCC 282300Z 35001MPS CAVOK 06/04 Q1013 R27/000060 NOSIG RMK QFE740

VFR

9°C / 6°C

[Plus]
Vent variable 0kt
Visibilité 9700m
Météo -
Nuages Clouds and Visibility OK
Pression 1013
Changement No Significant change
Brut USCC 282230Z 00000MPS CAVOK 09/06 Q1013 R27/000060 NOSIG RMK QFE739

VFR

9°C / 7°C

[Plus]
Vent variable 0kt
Visibilité 9700m
Météo -
Nuages Clouds and Visibility OK
Pression 1013
Changement No Significant change
Brut USCC 282200Z 00000MPS CAVOK 09/07 Q1013 R27/000060 NOSIG RMK QFE740

VFR

8°C / 6°C

[Plus]
Vent variable 0kt
Visibilité 9700m
Météo -
Nuages Clouds and Visibility OK
Pression 1013
Changement No Significant change
Brut USCC 282130Z 00000MPS CAVOK 08/06 Q1013 R27/000060 NOSIG RMK QFE740

VFR

9°C / 7°C

[Plus]
Vent variable 0kt
Visibilité 9700m
Météo -
Nuages Clouds and Visibility OK
Pression 1013
Changement No Significant change
Brut USCC 282100Z 00000MPS CAVOK 09/07 Q1013 R27/000060 NOSIG RMK QFE739

VFR

9°C / 6°C

[Plus]
Vent variable 0kt
Visibilité 9700m
Météo -
Nuages Clouds and Visibility OK
Pression 1013
Changement No Significant change
Brut USCC 282030Z 00000MPS CAVOK 09/06 Q1013 R27/000060 NOSIG RMK QFE740

VFR

11°C / 7°C

[Plus]
Vent variable 0kt
Visibilité 9700m
Météo -
Nuages Clouds and Visibility OK
Pression 1013
Changement No Significant change
Brut USCC 282000Z 00000MPS CAVOK 11/07 Q1013 R27/000060 NOSIG RMK QFE739

VFR

11°C / 7°C

[Plus]
Vent variable 0kt
Visibilité 9700m
Météo -
Nuages Clouds and Visibility OK
Pression 1013
Changement No Significant change
Brut USCC 281930Z 00000MPS CAVOK 11/07 Q1013 R27/000060 NOSIG RMK QFE739

VFR

10°C / 6°C

[Plus]
Vent 320º 2kt
Visibilité 9700m
Météo -
Nuages Clouds and Visibility OK
Pression 1013
Changement No Significant change
Brut USCC 281900Z 32001MPS CAVOK 10/06 Q1013 R27/000060 NOSIG RMK QFE739

VFR

12°C / 6°C

[Plus]
Vent 10º 4kt
Visibilité 9700m
Météo -
Nuages Clouds and Visibility OK
Pression 1013
Changement No Significant change
Brut USCC 281830Z 01002MPS CAVOK 12/06 Q1013 R27/000060 NOSIG RMK QFE740

VFR

14°C / 7°C

[Plus]
Vent 40º 8kt
Visibilité 9700m
Météo -
Nuages Clouds and Visibility OK
Pression 1013
Changement No Significant change
Brut USCC 281800Z 04004MPS CAVOK 14/07 Q1013 R27/000060 NOSIG RMK QFE739

VFR

18°C / 2°C

[Plus]
Vent 320º 10kt
Visibilité 9700m
Météo -
Nuages Clouds and Visibility OK
Pression 1012
Changement No Significant change
Brut USCC 281730Z 32005MPS CAVOK 18/02 Q1012 R27/000060 NOSIG RMK QFE739

VFR

18°C / 2°C

[Plus]
Vent 270º 12kt
Visibilité 9700m
Météo -
Nuages Clouds and Visibility OK
Pression 1012
Changement No Significant change
Brut USCC 281700Z 27006MPS CAVOK 18/02 Q1012 R27/000060 NOSIG RMK QFE739

VFR

18°C / 2°C

[Plus]
Vent 270º 12kt
Visibilité 9700m
Météo -
Nuages Clouds and Visibility OK
Pression 1012
Changement No Significant change
Brut USCC 281630Z 27006MPS CAVOK 18/02 Q1012 R27/000060 NOSIG RMK QFE739

VFR

19°C / 1°C

[Plus]
Vent 280º 16kt
Visibilité 9700m
Météo -
Nuages Clouds and Visibility OK
Pression 1012
Changement No Significant change
Brut USCC 281600Z 28008MPS CAVOK 19/01 Q1012 R27/000060 NOSIG RMK QFE739

VFR

19°C / 2°C

[Plus]
Vent 280º 16kt Gust 25kt
Visibilité 9700m
Météo -
Nuages Clouds and Visibility OK
Pression 1011
Changement No Significant change
Brut USCC 281530Z 28008G13MPS CAVOK 19/02 Q1011 R27/000060 NOSIG RMK QFE739

VFR

20°C / 2°C

[Plus]
Vent 280º 19kt
Visibilité 9700m
Météo -
Nuages Clouds and Visibility OK
Pression 1011
Changement No Significant change
Brut USCC 281500Z 28010MPS CAVOK 20/02 Q1011 R27/000060 NOSIG RMK QFE739

VFR

21°C / 2°C

[Plus]
Vent 280º 21kt Gust 33kt
Visibilité 9700m
Météo -
Nuages Clouds and Visibility OK
Pression 1011
Changement No Significant change
Brut USCC 281430Z 28011G17MPS CAVOK 21/02 Q1011 R27/000060 NOSIG RMK QFE738

VFR

21°C / 2°C

[Plus]
Vent 280º 21kt
Visibilité 9700m
Météo -
Nuages Clouds and Visibility OK
Pression 1011
Changement No Significant change
Brut USCC 281400Z 28011MPS CAVOK 21/02 Q1011 R27/000060 NOSIG RMK QFE739

TAF pour 55.31°N 61.5°E (USCC)

From till


From till Wind 40º 6kt. Gust 16kt. Visibility 6000m. Broken Clouds 1600ft.
Temporarly from till Visibility 305.775m. Fog . Obscured Sky.
Temporarly from till Light Rain . Overcast 900ft.

Brut: TAF AMD USCC 282316Z 2900/2924 04003G08MPS 6000 BKN016 TEMPO 2900/2903 0300 FG VV003 TEMPO 2903/2924 -RA OVC009

Radar pour 55.31°N 61.5°E

Bruine
Légère
Modéré
Fort
Très fort
Grêle

Le marqueur est placé sur 55.31°N 61.5°E. Les croix orange indiquent la foudre. Données fournies par nowcast.de (disponibles aux États-Unis, en Europe et en Australie). Une bruine ou une légère chute de neige peut être invisible pour le radar. L'intensité des précipitations est codée par couleur, allant du turquoise au rouge.

Les images satellites et les pluies actuelles pour 55.31°N 61.5°E

Le marqueur est placé sur 55.31°N 61.5°E. [Plus]

L'image satellite en temps réel combine la lumière visible pendant la journée et le rayonnement infrarouge pendant la nuit. La nuit, l'image n'est pas sombre car le rayonnement infrarouge permet de détecter les différences de température. Malheureusement, les nuages bas et le brouillard sont difficiles à distinguer des températures au sol et peuvent donc être presque invisibles pendant la nuit. Les images des satellites Météosat pour l'Europe sont mises à jour en temps réel toutes les 5 minutes. Les images GOES-16/GOES-17 (Amérique du Nord et du Sud) et Himawari (Asie) sont mises à jour toutes les 10 minutes.

Les précipitations sont estimées à partir de radars et de satellites. Les estimations des précipitations par satellite sont moins précises la nuit que le jour.

© 2024 meteoblue, NOAA Satellites GOES-16 and EUMETSAT. Données de foudre fournies par nowcast.

Retour vers le haut
×
Salut,
Il semble que vous utilisiez un logiciel antipub.

La publicité est essentielle pour maintenir notre site web gratuit avec des détails et précision uniques.

Veuillez mettre www.meteoblue.com sur la liste blanche de votre bloqueur de publicité ou envisager d'acheter l'un de nos produits :

Vous avez déjà un abonnement ?
Dans ce cas, veuillez vous connecter.